LSP416 TNCM-MDLR

Flight info

Callsign LSP416
Flight time 1h 15m
Altitude 32000
Route MODOR2 GOUDA L577 ANTEX/N0373F180 B520 GOSUB L577 LRN
Aircraft MD82/M-SDFGIRWY/S

Departure

Time 2026-04-26 18:50
Airport Princess Juliana International Airport (TNCM)

Arrival

Time 2026-04-26 20:05
Airport Casa De Campo International Airport (MDLR)
Time Latitude Longitude Altitude Speed Heading
2026-04-26 18:08 18.04250 -63.11544 56 ft 0 kts 321°
2026-04-26 18:34 18.04240 -63.11535 29 ft 4 kts 321°
2026-04-26 18:35 18.04223 -63.11521 29 ft 4 kts 318°
2026-04-26 18:35 18.04209 -63.11502 29 ft 4 kts 281°
2026-04-26 18:35 18.04213 -63.11487 29 ft 4 kts 231°
2026-04-26 18:35 18.04227 -63.11467 29 ft 1 kts 231°
2026-04-26 18:41 18.04226 -63.11469 29 ft 1 kts 231°
2026-04-26 18:41 18.04220 -63.11477 29 ft 2 kts 231°
2026-04-26 18:42 18.04209 -63.11492 29 ft 3 kts 231°
2026-04-26 18:42 18.04192 -63.11515 29 ft 5 kts 231°
2026-04-26 18:42 18.04174 -63.11538 29 ft 5 kts 231°
2026-04-26 18:42 18.04151 -63.11568 29 ft 6 kts 231°
2026-04-26 18:43 18.04123 -63.11604 29 ft 7 kts 231°
2026-04-26 18:43 18.04091 -63.11646 29 ft 8 kts 231°
2026-04-26 18:43 18.04061 -63.11702 28 ft 10 kts 255°
2026-04-26 18:43 18.04051 -63.11777 28 ft 11 kts 263°
2026-04-26 18:44 18.04042 -63.11843 28 ft 3 kts 262°
2026-04-26 18:46 18.04042 -63.11845 28 ft 2 kts 262°
2026-04-26 18:46 18.04037 -63.11875 28 ft 5 kts 257°
2026-04-26 18:47 18.04023 -63.11910 28 ft 6 kts 238°
2026-04-26 18:47 18.03998 -63.11945 29 ft 6 kts 230°
2026-04-26 18:47 18.03961 -63.11961 28 ft 6 kts 165°
2026-04-26 18:47 18.03946 -63.11933 28 ft 5 kts 97°
2026-04-26 18:48 18.03948 -63.11898 28 ft 5 kts 81°
2026-04-26 18:48 18.03954 -63.11859 28 ft 0 kts 81°
2026-04-26 18:49 18.03955 -63.11850 28 ft 12 kts 81°
2026-04-26 18:49 18.04000 -63.11534 28 ft 78 kts 81°
2026-04-26 18:49 18.04115 -63.10730 28 ft 142 kts 81°
2026-04-26 18:50 18.04220 -63.09576 395 ft 163 kts 83°
2026-04-26 18:50 18.04353 -63.08429 1266 ft 157 kts 94°
2026-04-26 18:50 18.04279 -63.07274 1989 ft 159 kts 101°
2026-04-26 18:50 18.04192 -63.06071 2311 ft 172 kts 96°
2026-04-26 18:51 18.04150 -63.04755 2542 ft 193 kts 96°
2026-04-26 18:51 18.04044 -63.03293 2814 ft 206 kts 104°
2026-04-26 18:51 18.03253 -63.02007 2924 ft 228 kts 148°
2026-04-26 18:51 18.01804 -63.01317 3544 ft 226 kts 158°
2026-04-26 18:52 18.00251 -63.00823 3809 ft 245 kts 177°
2026-04-26 18:52 17.98550 -63.01255 4108 ft 262 kts 203°
2026-04-26 18:52 17.96909 -63.02116 4727 ft 265 kts 205°
2026-04-26 18:52 17.95305 -63.03051 5310 ft 269 kts 209°
2026-04-26 18:53 17.93707 -63.04088 5973 ft 271 kts 211°
2026-04-26 18:53 17.92131 -63.05172 6696 ft 269 kts 213°
2026-04-26 18:53 17.90554 -63.06235 7346 ft 269 kts 209°
2026-04-26 18:53 17.88886 -63.07157 7911 ft 275 kts 204°
2026-04-26 18:54 17.87113 -63.07938 8442 ft 279 kts 203°
2026-04-26 18:54 17.85506 -63.09097 8989 ft 283 kts 231°
2026-04-26 18:54 17.84664 -63.10948 9642 ft 286 kts 260°
2026-04-26 18:54 17.84684 -63.13040 10239 ft 291 kts 275°
2026-04-26 18:55 17.84966 -63.15213 10410 ft 309 kts 277°
2026-04-26 18:55 17.85327 -63.17504 10580 ft 327 kts 279°
2026-04-26 18:55 17.85761 -63.19902 10780 ft 342 kts 280°
2026-04-26 18:55 17.86232 -63.22399 11108 ft 352 kts 280°
2026-04-26 18:56 17.86699 -63.24938 11606 ft 356 kts 280°
2026-04-26 18:56 17.87151 -63.27493 12278 ft 355 kts 279°
2026-04-26 18:56 17.87584 -63.30039 12935 ft 355 kts 278°
2026-04-26 18:56 17.88004 -63.32610 13438 ft 359 kts 278°
2026-04-26 18:57 17.88412 -63.35170 13947 ft 361 kts 278°
2026-04-26 18:57 17.88551 -63.36051 14129 ft 362 kts 278°
2026-04-26 18:57 17.89232 -63.40399 14924 ft 365 kts 278°
2026-04-26 18:57 17.89648 -63.43040 15407 ft 367 kts 278°
2026-04-26 18:58 17.90068 -63.45692 15935 ft 368 kts 278°
2026-04-26 18:58 17.90491 -63.48347 16467 ft 369 kts 278°
2026-04-26 18:58 17.90916 -63.51008 16957 ft 371 kts 278°
2026-04-26 18:58 17.91345 -63.53694 17411 ft 373 kts 277°
2026-04-26 18:59 17.91776 -63.56391 17908 ft 375 kts 277°
2026-04-26 18:59 17.92209 -63.59101 18405 ft 376 kts 277°
2026-04-26 18:59 17.92640 -63.61818 18801 ft 379 kts 277°
2026-04-26 18:59 17.93076 -63.64556 19151 ft 382 kts 277°
2026-04-26 19:00 17.93522 -63.67323 19537 ft 385 kts 278°
2026-04-26 19:00 17.94011 -63.70096 19940 ft 387 kts 278°
2026-04-26 19:00 17.94524 -63.72837 20339 ft 389 kts 279°
2026-04-26 19:00 17.95058 -63.75624 20718 ft 391 kts 279°
2026-04-26 19:01 17.95599 -63.78439 21066 ft 394 kts 279°
2026-04-26 19:01 17.96087 -63.81291 21425 ft 397 kts 277°
2026-04-26 19:01 17.96594 -63.84154 21826 ft 400 kts 279°
2026-04-26 19:01 17.97183 -63.87016 22222 ft 402 kts 279°
2026-04-26 19:02 17.97772 -63.89896 22569 ft 405 kts 279°
2026-04-26 19:02 17.98336 -63.92803 22909 ft 407 kts 278°
2026-04-26 19:02 17.98886 -63.95732 23256 ft 410 kts 278°
2026-04-26 19:02 17.99070 -63.96724 23382 ft 411 kts 278°
2026-04-26 19:03 17.99979 -64.01642 23954 ft 413 kts 278°
2026-04-26 19:03 18.00529 -64.04613 24283 ft 414 kts 278°
2026-04-26 19:03 18.01074 -64.07549 24586 ft 416 kts 278°
2026-04-26 19:03 18.01631 -64.10543 24892 ft 418 kts 278°
2026-04-26 19:04 18.02188 -64.13542 25229 ft 418 kts 278°
2026-04-26 19:04 18.02743 -64.16550 25540 ft 420 kts 278°
2026-04-26 19:04 18.03300 -64.19572 25856 ft 422 kts 278°
2026-04-26 19:04 18.03859 -64.22601 26176 ft 424 kts 278°
2026-04-26 19:05 18.04988 -64.28716 26809 ft 427 kts 278°
2026-04-26 19:05 18.05555 -64.31778 27135 ft 428 kts 278°
2026-04-26 19:05 18.05931 -64.33813 27334 ft 429 kts 278°
2026-04-26 19:06 18.06503 -64.36903 27635 ft 431 kts 278°
2026-04-26 19:06 18.07077 -64.40000 27913 ft 433 kts 278°
2026-04-26 19:06 18.07652 -64.43110 28208 ft 434 kts 278°
2026-04-26 19:06 18.08229 -64.46229 28521 ft 435 kts 278°
2026-04-26 19:07 18.08996 -64.50369 28988 ft 434 kts 278°
2026-04-26 19:07 18.09385 -64.52470 29306 ft 433 kts 278°
2026-04-26 19:07 18.09950 -64.55529 29754 ft 430 kts 278°
2026-04-26 19:07 18.10513 -64.58603 30204 ft 427 kts 278°
2026-04-26 19:08 18.11073 -64.61670 30562 ft 425 kts 278°
2026-04-26 19:08 18.11629 -64.64720 30896 ft 424 kts 277°
2026-04-26 19:08 18.12183 -64.67760 31202 ft 423 kts 277°
2026-04-26 19:08 18.12735 -64.70788 31525 ft 421 kts 277°
2026-04-26 19:09 18.13288 -64.73819 31757 ft 421 kts 277°
2026-04-26 19:09 18.13841 -64.76846 31870 ft 421 kts 277°
2026-04-26 19:09 18.14393 -64.79869 31925 ft 421 kts 277°
2026-04-26 19:10 18.15491 -64.85877 31969 ft 420 kts 277°
2026-04-26 19:10 18.16584 -64.91858 31976 ft 419 kts 277°
2026-04-26 19:11 18.17679 -64.97874 31981 ft 418 kts 276°
2026-04-26 19:11 18.18421 -65.03931 31969 ft 418 kts 272°
2026-04-26 19:12 18.18991 -65.10013 31970 ft 418 kts 272°
2026-04-26 19:12 18.19631 -65.16104 31972 ft 419 kts 274°
2026-04-26 19:13 18.20284 -65.22150 31983 ft 419 kts 273°
2026-04-26 19:13 18.20899 -65.28245 31975 ft 419 kts 273°
2026-04-26 19:14 18.21539 -65.34338 31973 ft 418 kts 273°
2026-04-26 19:14 18.22194 -65.40403 31979 ft 417 kts 273°
2026-04-26 19:15 18.22844 -65.46460 31989 ft 416 kts 273°
2026-04-26 19:15 18.23479 -65.52519 31982 ft 417 kts 273°
2026-04-26 19:16 18.24113 -65.58582 31990 ft 417 kts 273°
2026-04-26 19:16 18.24745 -65.64621 31992 ft 417 kts 273°
2026-04-26 19:17 18.25380 -65.70659 31979 ft 414 kts 273°
2026-04-26 19:17 18.26010 -65.76660 31971 ft 412 kts 273°
2026-04-26 19:18 18.26639 -65.82666 31969 ft 414 kts 273°
2026-04-26 19:18 18.27268 -65.88694 31965 ft 414 kts 273°
2026-04-26 19:19 18.27886 -65.94724 31982 ft 414 kts 273°
2026-04-26 19:19 18.28493 -66.00702 31955 ft 411 kts 273°
2026-04-26 19:20 18.29102 -66.06668 31951 ft 409 kts 273°
2026-04-26 19:20 18.29714 -66.12628 31960 ft 411 kts 273°
2026-04-26 19:21 18.30329 -66.18625 31964 ft 413 kts 273°
2026-04-26 19:21 18.30946 -66.24620 31946 ft 410 kts 273°
2026-04-26 19:22 18.31552 -66.30558 31962 ft 410 kts 273°
2026-04-26 19:22 18.32145 -66.36516 31962 ft 409 kts 273°
2026-04-26 19:23 18.32740 -66.42490 31969 ft 411 kts 273°
2026-04-26 19:23 18.33339 -66.48477 31971 ft 411 kts 273°
2026-04-26 19:24 18.33939 -66.54476 31975 ft 412 kts 273°
2026-04-26 19:24 18.34838 -66.63443 31976 ft 411 kts 273°
2026-04-26 19:25 18.35339 -66.68407 31967 ft 409 kts 273°
2026-04-26 19:25 18.36031 -66.75363 31972 ft 409 kts 272°
2026-04-26 19:26 18.36608 -66.81311 31967 ft 410 kts 273°
2026-04-26 19:26 18.37188 -66.87296 31964 ft 411 kts 272°
2026-04-26 19:27 18.37776 -66.93291 31965 ft 411 kts 272°
2026-04-26 19:27 18.38362 -66.99262 31962 ft 409 kts 272°
2026-04-26 19:28 18.38942 -67.05206 31961 ft 408 kts 272°
2026-04-26 19:28 18.39519 -67.11126 31961 ft 409 kts 272°
2026-04-26 19:29 18.40104 -67.17101 31961 ft 410 kts 272°
2026-04-26 19:29 18.40676 -67.23069 31967 ft 410 kts 272°
2026-04-26 19:30 18.41243 -67.29049 31961 ft 410 kts 272°
2026-04-26 19:30 18.41716 -67.34016 31956 ft 408 kts 272°
2026-04-26 19:31 18.42374 -67.40916 31954 ft 407 kts 272°
2026-04-26 19:31 18.42942 -67.46860 31951 ft 408 kts 272°
2026-04-26 19:32 18.43511 -67.52826 31950 ft 409 kts 272°
2026-04-26 19:32 18.44081 -67.58792 31948 ft 409 kts 272°
2026-04-26 19:33 18.44553 -67.64735 31949 ft 406 kts 271°
2026-04-26 19:33 18.45004 -67.70663 31950 ft 406 kts 272°
2026-04-26 19:34 18.45559 -67.76597 31948 ft 407 kts 273°
2026-04-26 19:34 18.46163 -67.82544 31947 ft 408 kts 273°
2026-04-26 19:35 18.46767 -67.88456 31946 ft 409 kts 273°
2026-04-26 19:35 18.47368 -67.94414 31944 ft 408 kts 273°
2026-04-26 19:36 18.47860 -67.99355 31943 ft 407 kts 272°
2026-04-26 19:36 18.47867 -68.06282 31949 ft 404 kts 265°
2026-04-26 19:37 18.47643 -68.12213 31953 ft 405 kts 265°
2026-04-26 19:37 18.47468 -68.18161 31951 ft 408 kts 266°
2026-04-26 19:38 18.47341 -68.24111 31961 ft 409 kts 266°
2026-04-26 19:38 18.47230 -68.30093 31963 ft 407 kts 266°
2026-04-26 19:39 18.47115 -68.36050 31965 ft 406 kts 266°
2026-04-26 19:39 18.46992 -68.42008 31965 ft 407 kts 266°
2026-04-26 19:40 18.46856 -68.47970 31941 ft 407 kts 266°
2026-04-26 19:40 18.46697 -68.53946 31948 ft 408 kts 266°
2026-04-26 19:41 18.46551 -68.59885 31948 ft 407 kts 266°
2026-04-26 19:41 18.46709 -68.63857 31954 ft 409 kts 280°
2026-04-26 19:42 18.48783 -68.68475 30970 ft 430 kts 297°
2026-04-26 19:42 18.50119 -68.71252 30280 ft 421 kts 285°
2026-04-26 19:42 18.50851 -68.74208 29520 ft 414 kts 277°
2026-04-26 19:42 18.51234 -68.77205 28729 ft 410 kts 273°
2026-04-26 19:43 18.51465 -68.80189 27963 ft 407 kts 273°
2026-04-26 19:43 18.51737 -68.83146 27212 ft 404 kts 275°
2026-04-26 19:43 18.52490 -68.85993 26493 ft 409 kts 295°
2026-04-26 19:43 18.54289 -68.88279 25812 ft 418 kts 319°
2026-04-26 19:44 18.56910 -68.89665 25135 ft 430 kts 341°
2026-04-26 19:44 18.59885 -68.89902 24449 ft 430 kts
2026-04-26 19:44 18.62726 -68.88935 23833 ft 420 kts 28°
2026-04-26 19:44 18.64880 -68.86982 23509 ft 414 kts 53°
2026-04-26 19:45 18.66064 -68.84254 23305 ft 409 kts 89°
2026-04-26 19:45 18.65549 -68.81427 23557 ft 382 kts 112°
2026-04-26 19:45 18.64940 -68.78698 23202 ft 394 kts 94°
2026-04-26 19:45 18.65021 -68.75767 22937 ft 398 kts 89°
2026-04-26 19:46 18.65208 -68.72873 23000 ft 391 kts 88°
2026-04-26 19:46 18.65339 -68.70067 22760 ft 374 kts 91°
2026-04-26 19:46 18.65298 -68.67324 21698 ft 375 kts 95°
2026-04-26 19:46 18.65092 -68.64616 20827 ft 372 kts 98°
2026-04-26 19:47 18.64783 -68.61948 20223 ft 361 kts 100°
2026-04-26 19:47 18.64665 -68.61064 20029 ft 362 kts 101°
2026-04-26 19:47 18.64519 -68.56823 20669 ft 337 kts 88°
2026-04-26 19:47 18.64671 -68.54333 20500 ft 345 kts 88°
2026-04-26 19:48 18.64801 -68.51751 20002 ft 361 kts 89°
2026-04-26 19:48 18.64902 -68.49083 19394 ft 361 kts 89°
2026-04-26 19:48 18.64969 -68.46468 18771 ft 352 kts 91°
2026-04-26 19:48 18.64958 -68.43917 18153 ft 344 kts 93°
2026-04-26 19:49 18.64560 -68.41492 17490 ft 331 kts 117°
2026-04-26 19:49 18.63439 -68.39465 16826 ft 318 kts 134°
2026-04-26 19:49 18.61759 -68.38069 16174 ft 303 kts 157°
2026-04-26 19:49 18.59873 -68.37136 15461 ft 295 kts 160°
2026-04-26 19:50 18.58007 -68.36283 14753 ft 289 kts 161°
2026-04-26 19:50 18.56167 -68.35467 14062 ft 284 kts 161°
2026-04-26 19:50 18.54338 -68.34737 13329 ft 276 kts 173°
2026-04-26 19:50 18.52498 -68.34864 12584 ft 264 kts 207°
2026-04-26 19:51 18.50980 -68.35924 11850 ft 263 kts 220°
2026-04-26 19:51 18.49822 -68.37390 11132 ft 263 kts 248°
2026-04-26 19:51 18.49538 -68.38626 10668 ft 265 kts 265°
2026-04-26 19:51 18.49554 -68.41243 9716 ft 268 kts 271°
2026-04-26 19:52 18.49609 -68.42543 9209 ft 269 kts 271°
2026-04-26 19:52 18.49715 -68.44517 8428 ft 270 kts 272°
2026-04-26 19:52 18.49838 -68.46487 7706 ft 270 kts 272°
2026-04-26 19:52 18.49964 -68.48460 6987 ft 270 kts 272°
2026-04-26 19:53 18.50085 -68.50439 6273 ft 270 kts 271°
2026-04-26 19:53 18.50186 -68.52358 5999 ft 251 kts 271°
2026-04-26 19:53 18.50290 -68.54188 5823 ft 249 kts 271°
2026-04-26 19:53 18.50381 -68.55998 5680 ft 248 kts 270°
2026-04-26 19:54 18.50456 -68.57807 5552 ft 248 kts 270°
2026-04-26 19:54 18.50527 -68.59598 5429 ft 247 kts 270°
2026-04-26 19:54 18.50598 -68.61434 5321 ft 255 kts 270°
2026-04-26 19:54 18.50672 -68.63298 5260 ft 254 kts 270°
2026-04-26 19:55 18.50744 -68.65159 5363 ft 256 kts 270°
2026-04-26 19:55 18.50905 -68.67036 5444 ft 259 kts 279°
2026-04-26 19:55 18.51338 -68.68890 5513 ft 262 kts 282°
2026-04-26 19:55 18.51743 -68.70765 5590 ft 262 kts 278°
2026-04-26 19:56 18.52010 -68.72658 5669 ft 260 kts 274°
2026-04-26 19:56 18.52188 -68.74548 5736 ft 259 kts 272°
2026-04-26 19:56 18.52315 -68.76438 5772 ft 259 kts 271°
2026-04-26 19:56 18.52424 -68.78341 5763 ft 261 kts 271°
2026-04-26 19:57 18.52516 -68.80261 5754 ft 262 kts 270°
2026-04-26 19:57 18.52612 -68.82181 5765 ft 263 kts 271°
2026-04-26 19:57 18.52703 -68.84117 5793 ft 263 kts 270°
2026-04-26 19:57 18.52801 -68.86022 5828 ft 263 kts 271°
2026-04-26 19:58 18.52902 -68.87941 5874 ft 261 kts 271°
2026-04-26 19:58 18.52995 -68.89853 5873 ft 261 kts 270°
2026-04-26 19:58 18.52907 -68.91757 5837 ft 262 kts 259°
2026-04-26 19:58 18.52939 -68.93683 5525 ft 262 kts 281°
2026-04-26 19:59 18.53355 -68.95561 5245 ft 263 kts 278°
2026-04-26 19:59 18.53577 -68.97456 4891 ft 261 kts 271°
2026-04-26 19:59 18.53635 -68.99356 4521 ft 260 kts 269°
2026-04-26 19:59 18.53677 -69.01256 4136 ft 258 kts 269°
2026-04-26 20:00 18.53740 -69.03141 3772 ft 257 kts 270°
2026-04-26 20:00 18.53769 -69.05014 3428 ft 253 kts 259°
2026-04-26 20:00 18.53157 -69.06585 3271 ft 218 kts 226°
2026-04-26 20:00 18.51991 -69.07436 2957 ft 198 kts 203°
2026-04-26 20:01 18.50750 -69.07972 2696 ft 186 kts 198°
2026-04-26 20:01 18.49579 -69.08358 2555 ft 169 kts 193°
2026-04-26 20:01 18.48432 -69.08570 2514 ft 168 kts 175°
2026-04-26 20:01 18.47436 -69.08037 2617 ft 167 kts 128°
2026-04-26 20:02 18.47057 -69.06867 2566 ft 175 kts 102°
2026-04-26 20:02 18.46864 -69.05588 2373 ft 177 kts 101°
2026-04-26 20:02 18.46698 -69.04300 2178 ft 176 kts 100°
2026-04-26 20:02 18.46610 -69.03456 2108 ft 176 kts 99°
2026-04-26 20:03 18.46441 -69.01748 2047 ft 173 kts 98°
2026-04-26 20:03 18.46323 -69.00453 1780 ft 181 kts 98°
2026-04-26 20:03 18.46203 -68.99138 1457 ft 178 kts 99°
2026-04-26 20:03 18.46075 -68.97870 1202 ft 170 kts 101°
2026-04-26 20:04 18.45910 -68.96657 1006 ft 167 kts 103°
2026-04-26 20:04 18.45756 -68.95438 784 ft 173 kts 101°
2026-04-26 20:04 18.45619 -68.94173 579 ft 173 kts 101°
2026-04-26 20:04 18.45464 -68.92943 346 ft 166 kts 99°
2026-04-26 20:05 18.45321 -68.91782 222 ft 148 kts 89°
2026-04-26 20:05 18.45254 -68.91181 223 ft 19 kts 97°
2026-04-26 20:05 18.45253 -68.91169 223 ft 0 kts 98°
2026-04-26 20:05 18.45240 -68.91148 225 ft 6 kts 142°
2026-04-26 20:06 18.45189 -68.91143 223 ft 9 kts 188°
2026-04-26 20:06 18.45116 -68.91153 222 ft 12 kts 186°
2026-04-26 20:06 18.45033 -68.91167 221 ft 11 kts 208°
2026-04-26 20:06 18.44972 -68.91198 221 ft 7 kts 189°
2026-04-26 20:07 18.44938 -68.91202 221 ft 3 kts 186°
2026-04-26 20:07 18.44933 -68.91203 221 ft 0 kts 186°